This is the latest recevied weather packets stored in our database for station/object K7DC. If no packets are shown the sender has not sent any weather packets the latest 10 day(s).
| Time | Temp. | Humidity | Pressure | Rain* | Wind** | Luminosity | Snow |
|---|---|---|---|---|---|---|---|
| 1788304403 | 36.67° C | 32% | 1015.2 hPa | 0 mm | - | 325 W/m² | - |
| 1788304099 | 36.67° C | 32% | 1014.8 hPa | 0 mm | - | 348 W/m² | - |
| 1788303799 | 36.67° C | 32% | 1015.1 hPa | 0 mm | - | 372 W/m² | - |
| 1788303494 | 36.67° C | 32% | 1015.3 hPa | 0 mm | - | 393 W/m² | - |
| 1788303193 | 37.22° C | 32% | 1015.3 hPa | 0 mm | - | 415 W/m² | - |
| 1788302889 | 37.22° C | 32% | 1015.3 hPa | 0 mm | - | 438 W/m² | - |
| 1788302585 | 37.22° C | 32% | 1015.3 hPa | 0 mm | - | 460 W/m² | - |
| 1788302281 | 37.78° C | 32% | 1015.2 hPa | 0 mm | - | 480 W/m² | - |
| 1788301981 | 37.78° C | 31% | 1015.3 hPa | 0 mm | - | 502 W/m² | - |
| 1788301678 | 37.22° C | 32% | 1015.6 hPa | 0 mm | - | 526 W/m² | - |
| 1788301374 | 37.22° C | 32% | 1015.4 hPa | 0 mm | - | 545 W/m² | - |
| 1788301069 | 36.67° C | 33% | 1015.4 hPa | 0 mm | - | 565 W/m² | - |
| 1788300764 | 37.78° C | 31% | 1015.7 hPa | 0 mm | - | 584 W/m² | - |
| 1788300465 | 37.78° C | 31% | 1015.6 hPa | 0 mm | - | 602 W/m² | - |
| 1788300164 | 37.78° C | 31% | 1015.8 hPa | 0 mm | - | 619 W/m² | - |
| 1788299863 | 37.78° C | 31% | 1015.6 hPa | 0 mm | - | 637 W/m² | - |
| 1788299562 | 37.78° C | 31% | 1015.7 hPa | 0 mm | - | 654 W/m² | - |
| 1788299261 | 37.78° C | 31% | 1015.8 hPa | 0 mm | - | 670 W/m² | - |
| 1788298960 | 37.78° C | 30% | 1015.9 hPa | 0 mm | - | 686 W/m² | - |
| 1788298655 | 37.78° C | 31% | 1016.3 hPa | 0 mm | - | 700 W/m² | - |
| 1788298355 | 37.22° C | 30% | 1016 hPa | 0 mm | - | 716 W/m² | - |
| 1788298055 | 37.22° C | 30% | 1016.3 hPa | 0 mm | - | 730 W/m² | - |
| 1788297750 | 36.67° C | 31% | 1016.5 hPa | 0 mm | - | 741 W/m² | - |
| 1788297445 | 37.22° C | 31% | 1016.3 hPa | 0 mm | - | 755 W/m² | - |
| 1788297142 | 37.78° C | 31% | 1016.3 hPa | 0 mm | - | 767 W/m² | - |
* Rain latest hour (hover to see other rain measurements)
** Current wind speed in m/s (hover to see current wind gust speed)